www.pogodaiklimat.ru

ПОГОДА в Джарджане

  • Прогноз погоды в Джарджане
  • Монитор погоды в Джарджане
  • Климат города

АРХИВ ПОГОДЫ в Джарджане

Время (UTC), дата Ветер
(напр.,м/с)
 
Видим.   Явления Облачность Т
(С)
Тd
(С)
f
(%)
Тe
(С)
Тes
(С)
Комфортность P
(гПа)
Po
(гПа)
Тmin
(С)
Tmax
(С)
R
(мм)
S
(см)
18 9.01 ЮЗ 1 20 км слабый снег 10/0
[As op]
-31.0 -34.1 74 -35 -35 опасность
обморожения
1019.7 1014.2
21 9.01 ЮЗ 1 20 км слабый снег 10/0
[As op]
-28.5 -31.7 74 -32 -32 опасность
обморожения
1019.9 1014.4
00 10.01 штиль 0 20 км слабый снег 10/0
[As op]
-28.0 -31.2 74 -28 -28 1020.2 1014.7 -35.5 0.7 32
03 10.01 С 1 50 км {снег} 10/0
[As op]
-25.5 -28.7 74 -29 -29 1020.2 1014.8
06 10.01 С 1 20 км слабый снег 10/0
[As op]
-25.7 -28.8 75 -29 -29 1021.8 1016.4
09 10.01 С 1 20 км слабый снег 10/0
[As op]
-27.2 -30.3 75 -31 -31 опасность
обморожения
1024.2 1018.8
12 10.01 штиль 0 50 км {снег} ясно -27.0 -30.2 74 -27 -27 1025.9 1020.5 -25.3 0.3
15 10.01 Ю 3 20 км слабый снег {метель} 10/0
[Ac As]
-32.5 -35.5 74 -43 -43 опасность
обморожения
1028.7 1023.0
18 10.01 Ю 3 20 км слабый снег {метель} 10/0
[As op]
-33.1 -36.0 75 -43 -43 опасность
обморожения
1031.8 1026.1
21 10.01 Ю 9-12
{12}
20 км слабый снег {метель} 10/0
[As op]
-34.3 -37.1 76 -52 -52 опасность
обморожения
1034.7 1029.0
00 11.01 Ю 9-9
{12}
20 км слабый снег {метель} 10/0
[As op]
-34.8 -37.7 75 -52 -52 опасность
обморожения
1037.7 1032.0 -35.1 0.9 33
03 11.01 Ю 5
{12}
50 км позёмок {снег, метель} 10/0
[Ac As]
-34.7 -38.4 69 -48 -48 опасность
обморожения
1038.8 1033.1
06 11.01 Ю 3 50 км {снег, метель} 3/0
[Ac trans]
-35.1 -38.7 69 -46 -46 опасность
обморожения
1040.4 1034.7
09 11.01 Ю 3 50 км 3/0
[Ac trans]
-35.8 -39.4 69 -47 -47 опасность
обморожения
1041.8 1036.0
12 11.01 Ю 1 50 км ясно -36.4 -40.1 68 -41 -41 опасность
обморожения
1043.2 1037.4 -34.2 0.0
15 11.01 штиль 0 50 км ясно -39.5 -42.9 70 -40 -40 опасность
обморожения
1043.5 1037.6
18 11.01 штиль 0 50 км ясно -42.3 -45.6 70 -42 -42 опасность
обморожения
1043.8 1037.9
21 11.01 штиль 0 50 км 10/0
[Ci fib]
-41.8 -45.0 71 -42 -42 опасность
обморожения
1044.2 1038.3
00 12.01 штиль 0 50 км 4/0
[Ci fib]
-41.1 -44.4 70 -41 -41 опасность
обморожения
1043.9 1038.0 -42.5 31
03 12.01 штиль 0 50 км 3/0
[Ci fib]
-41.3 -44.4 72 -41 -41 опасность
обморожения
1043.8 1037.9
06 12.01 штиль 0 50 км 3/0
[Ci fib]
-41.7 -45.0 70 -42 -42 опасность
обморожения
1043.2 1037.3
09 12.01 штиль 0 50 км 3/0
[Ci fib]
-42.6 -46.2 68 -43 -43 опасность
обморожения
1043.2 1037.2
12 12.01 штиль 0 50 км 4/0
[Ci fib]
-42.9 -46.2 70 -43 -43 опасность
обморожения
1042.9 1036.9 -41.3
15 12.01 штиль 0 50 км 8/0
[Ci fib]
-42.9 -46.2 70 -43 -43 опасность
обморожения
1042.6 1036.6
18 12.01 штиль 0 50 км 3/0
[Ci fib]
-42.9 -46.2 70 -43 -43 опасность
обморожения
1042.0 1036.0
21 12.01 штиль 0 50 км ясно -42.4 -45.6 71 -42 -42 опасность
обморожения
1041.5 1035.6
00 13.01 штиль 0 50 км 3/0
[As op]
-40.9 -44.4 69 -41 -41 опасность
обморожения
1041.0 1035.1 -43.5 31
03 13.01 С 1 50 км ясно -40.9 -44.4 69 -46 -46 опасность
обморожения
1040.5 1034.7
06 13.01 С 1 50 км ясно -41.1 -44.4 70 -46 -46 опасность
обморожения
1040.7 1034.9
09 13.01 штиль 0 50 км ясно -41.4 -45.0 68 -41 -41 опасность
обморожения
1041.0 1035.1
12 13.01 штиль 0 50 км ясно -42.3 -45.6 70 -42 -42 опасность
обморожения
1041.5 1035.6 -40.9
15 13.01 штиль 0 50 км ясно -42.8 -46.2 69 -43 -43 опасность
обморожения
1042.2 1036.2
18 13.01 штиль 0 50 км ясно -43.4 -46.9 68 -43 -43 опасность
обморожения
1042.9 1036.9
21 13.01 штиль 0 50 км ясно -44.6 -47.6 72 -45 -45 опасность
обморожения
1043.5 1037.5
00 14.01 С 1 50 км ясно -42.6 -46.2 68 -48 -48 опасность
обморожения
1045.4 1039.4 -44.8 31
03 14.01 штиль 0 50 км ясно -40.9 -44.4 69 -41 -41 опасность
обморожения
1046.5 1040.6
06 14.01 Ю 1 50 км ясно -38.3 -41.6 71 -43 -43 опасность
обморожения
1047.1 1041.2
09 14.01 Ю 1 50 км ясно -37.9 -41.6 68 -43 -43 опасность
обморожения
1048.1 1042.2
12 14.01 Ю 1 50 км ясно -37.6 -41.2 69 -43 -43 опасность
обморожения
1048.3 1042.3 -37.6
15 14.01 Ю 1 50 км ясно -39.4 -42.9 69 -45 -45 опасность
обморожения
1047.9 1042.0
18 14.01 Ю 1 50 км ясно -44.4 -50 -50 опасность
обморожения
1047.5 1041.8
21 14.01 штиль 0 50 км ясно -40.0 -43.4 70 -40 -40 опасность
обморожения
1047.6 1041.7
00 15.01 штиль 0 50 км ясно -40.0 -43.4 70 -40 -40 опасность
обморожения
1047.4 1041.5 -41.0 31
03 15.01 штиль 0 50 км 3/0
[Ci fib]
-40.5 -43.9 70 -41 -41 опасность
обморожения
1047.1 1041.2
06 15.01 штиль 0 50 км 3/0
[Ci fib]
-40.4 -43.9 69 -40 -40 опасность
обморожения
1046.6 1040.7
09 15.01 штиль 0 50 км 3/0
[Ci fib]
-41.4 -45.0 68 -41 -41 опасность
обморожения
1046.4 1040.5
12 15.01 штиль 0 50 км 4/0
[Ci fib]
-41.3 -44.4 72 -41 -41 опасность
обморожения
1046.3 1040.4 -40.4
15 15.01 штиль 0 50 км 3/0
[Ci fib]
-41.9 -45.0 72 -42 -42 опасность
обморожения
1046.3 1040.4
18 15.01 штиль 0 50 км 3/0
[Ci fib]
-42.7 -46.2 68 -43 -43 опасность
обморожения
1045.6 1039.6
21 15.01 штиль 0 50 км ясно -43.3 -46.9 67 -43 -43 опасность
обморожения
1044.2 1038.2
00 16.01 штиль 0 50 км ясно -43.1 -46.2 71 -43 -43 опасность
обморожения
1042.9 1036.9 -43.6 31
03 16.01 штиль 0 50 км ясно -43.5 -46.9 69 -44 -44 опасность
обморожения
1043.4 1037.4
06 16.01 штиль 0 50 км ясно -42.9 -46.2 70 -43 -43 опасность
обморожения
1042.5 1036.5
09 16.01 штиль 0 50 км ясно -43.1 -46.2 71 -43 -43 опасность
обморожения
1041.9 1035.9
12 16.01 штиль 0 50 км ясно -43.3 -46.9 67 -43 -43 опасность
обморожения
1041.1 1035.1 -42.4
15 16.01 штиль 0 50 км ясно -43.6 -46.9 70 -44 -44 опасность
обморожения
1039.9 1033.9

 

Местоположение метеостанции Джарджан (Якутия, Россия): широта 68.73 долгота 124.00 высота над уровнем моря 39 м.

В архиве по умолчанию представлена погода в Джарджане за последнюю неделю. Архивные данные за месяц целиком и за предыдущие месяцы, начиная с января 2011 года, Вы можете получить, выбрав интересующий диапазон дат из раскрывающегося списка и нажав кнопку "Ввод!".

Внимание! Время в таблицах - всемирное. Для получения местного времени необходимо прибавить поправку, которая в Джарджане равна 9 ч.

Ветер - указаны скорость ветра в м/с - средняя за 10 мин, порывы в срок и между сроками (в фигурных скобках) и направление, откуда дует ветер: С - северный, СВ - северо-восточный, В - восточный, ЮВ - юго-восточный, Ю - южный, ЮЗ - юго-западный, З - западный, СЗ - северо-западный.
Видимость - горизонтальная дальность видимости в метрах или километрах. При видимости от 1 до 10 км при отсутствии осадков обычно наблюдается дымка, при ухудшении видимости до 1 км и менее - туман. В сухую погоду видимость может ухудшаться дымом, пылью или мглою.
Явления - указаны атмосферные явления, наблюдавшиеся в срок или в последний час перед сроком; фигурными скобками обозначены явления, наблюдавшиеся между сроками (за 1-3 часа до срока); квадратными скобками обозначены град или гололедные отложения с указанием их диаметра в мм.
Облачность - указаны через наклонную черту общая и нижняя облачность в баллах и высота нижней границы облаков в метрах; квадратными скобками обозначены формы облаков: Ci - перистые, Cs - перисто-слоистые, Cc - перисто-кучевые, Ac - высококучевые, As - высокослоистые, Sc - слоисто-кучевые, Ns - слоисто-дождевые, Cu - кучевые, Cb - кучево-дождевые. Подробнее классификацию облаков см. в Атласе облаков (PDF).
T - Температура воздуха - температура, измеренная на высоте 2 м над землей.
Td - Температура точки росы - температура, при понижении до которой содержащийся в воздухе водяной пар достигнет насыщения.
f - Относительная влажность воздуха - влажноcть воздуха, измеренная на высоте 2 м над землей.
Te - Эффективная температура - температура, которую ощущает одетый по сезону человек в тени. Характеристика душности погоды. При расчете учитывается влияние влажности воздуха и скорости ветра на теплоощущения человека.
Tes - Эффективная температура на солнце - температура, которую ощущает человек, с поправкой на солнечный нагрев. Характеристика знойности погоды. Зависит от высоты солнца над горизонтом, облачности и скорости ветра. Ночью, в пасмурную погоду, а также при ветре 12 м/с и более поправка равна нулю.
P - Атмосферное давление - приведенное к уровню моря атмосферное давление.
Po - Атмосферное давление - измеренное на уровне метеостанции атмосферное давление.
Tmin - Минимальная температура - минимум температуры воздуха на высоте 2 м над землей.
Tmax - Максимальная температура - максимум температуры воздуха на высоте 2 м над землей.
R - Количество осадков - Количество выпавших осадков, мм. При наведении курсора мыши на число - период времени, за который выпало указанное количество осадков.
S - Снежный покров - Высота снежного покрова, см. При наведении курсора мыши на число - состояние снежного покрова и степень покрытия местности в баллах.